Location: ?
(35.4064°N, 139.3593°E)
Time: 05:47:26
(UTC+00:00)

Cosmos 1340 - Visible Passes

Search period start: 16 July 2024 00:00
Search period end: 26 July 2024 00:00
Orbit: 428 x 431 km, 81.2° (Epoch: 15 July)

Date Brightness Start Highest point End Pass type
(mag) Time Alt. Az. Time Alt. Az. Time Alt. Az.
16 Jul 2.3 17:51:54 55° S 17:52:32 82° E 17:55:53 10° N visible
17 Jul 4.3 17:10:39 24° E 17:10:41 24° E 17:13:25 10° NE visible
17 Jul 4.5 18:43:53 11° W 18:44:44 12° WNW 18:46:11 10° NW visible
18 Jul 3.1 18:02:33 35° WNW 18:02:33 35° WNW 18:05:38 10° N visible
19 Jul 3.2 17:21:07 49° NE 17:21:07 49° NE 17:23:45 10° NNE visible
20 Jul 5.1 16:39:36 17° ENE 16:39:36 17° ENE 16:40:56 10° NE visible
20 Jul 4.5 18:12:50 14° WNW 18:12:50 14° WNW 18:14:24 10° NW visible
21 Jul 3.8 17:31:15 30° NNW 17:31:15 30° NNW 17:33:17 10° N visible
22 Jul 4.7 16:49:35 23° NNE 16:49:35 23° NNE 16:51:04 10° NNE visible
23 Jul 4.8 17:41:03 14° NW 17:41:03 14° NW 17:41:56 10° NNW visible
24 Jul 4.8 16:59:14 19° N 16:59:14 19° N 17:00:21 10° N visible
25 Jul 5.6 16:17:20 13° NNE 16:17:20 13° NNE 16:17:48 10° NNE visible
